"Pseudo-MPEC" for P21Df4i

Created 2023 Jan 29 15:22:22 UT using Find_Orb

Click here for an explanation of pseudo-MPECs

 
 Astrometry: 
     P21Df4i* C2023 01 24j,h5AstrometryyeK+IuD#?Y=5t?($HYA5en'xHq+j-^UXCY-h\LF52
     P21Df4i  C2023 01 24GTM!CGAL%i+FXKo_I=V.-cmcv6v)redacted;$20%f]'d^click6F52
     P21Df4i  C2023 01 24ckucIFXbpuX)\KFhereXbBa@forTqexplanationFu.'_F)OcN$'F52

Station data:
(F52) Pan-STARRS 2, Haleakala  (N20.707382 W156.255910)  US/Hawaii.
   Observers J. Bulger, T. Dukes, T. Lowe, A. Schultz, M. Willman. Measurers
   K. Chambers, S. Chastel, T. de Boer, L. Denneau, J. Fairlamb, H.
   Flewelling, M. Huber, C.-C. Lin, E. Magnier, Y. Ramanjooloo, R. Wainscoat,
   R. Weryk. 1.8-m Ritchey-Chrétien + CCD.

Orbital elements:  P21Df4i
   Perihelion 2022 Sep 24.49269 +/- 69.4 TT = 11:49:28 (JD 2459846.99269)
Epoch 2023 Jan 25.0 TT = JDT 2459969.5   Earth MOID: 0.0191      AutoNEOCP
M 130.68901703 +/- 110              (J2000 ecliptic)
n   1.06678543 +/- 0.647            Peri.  220.21062 +/- 80
a   0.94860337 +/- 0.383            Node   127.49863 +/- 24
e   0.0831422 +/- 0.249             Incl.    6.64495 +/- 30
P   0.92/337.46d           H 27.08  G  0.15   U 12.4  SR
q 0.86973438 +/- 0.298    Q 1.02747236 +/- 15.7
From 3 observations 2023 Jan. 24 (47.1 min); mean residual 0".10
Residuals in arcseconds: 
230124 F52  .00   .06-    230124 F52  .00   .19+    230124 F52  .00   .13-    

Ephemerides (geocentric):
Date (UTC) HH   RA             Dec           delta  r     elong  mag " sig PA
---- --------  ------------   ------------  ------ ------ -----  --- --------
2023 01 29 15  10 06 44.527   +22 08 46.56  .02429 1.0079 160.6 20.0  60d   3
2023 01 29 16  10 06 33.644   +22 21 16.48  .02432 1.0079 160.7 20.0  60d   3
2023 01 29 17  10 06 22.748   +22 33 44.59  .02435 1.0080 160.7 20.0  60d   3
2023 01 29 18  10 06 11.840   +22 46 10.86  .02438 1.0080 160.8 20.0  60d   3
2023 01 29 19  10 06 00.919   +22 58 35.29  .02441 1.0080 160.8 20.0  60d   3
2023 01 29 20  10 05 49.985   +23 10 57.86  .02444 1.0081 160.8 20.0  60d   3
2023 01 29 21  10 05 39.039   +23 23 18.55  .02447 1.0081 160.9 20.0  60d   3
2023 01 29 22  10 05 28.080   +23 35 37.34  .02450 1.0082 160.9 20.0  59d   3
2023 01 29 23  10 05 17.109   +23 47 54.22  .02453 1.0082 160.9 20.1  59d   2
2023 01 30 00  10 05 06.125   +24 00 09.18  .02456 1.0082 160.9 20.1  59d   2
2023 01 30 01  10 04 55.129   +24 12 22.20  .02459 1.0083 161.0 20.1  59d   2
2023 01 30 02  10 04 44.121   +24 24 33.26  .02462 1.0083 161.0 20.1  59d   2
2023 01 30 03  10 04 33.100   +24 36 42.36  .02465 1.0083 161.0 20.1  59d   2
2023 01 30 04  10 04 22.067   +24 48 49.47  .02468 1.0084 161.0 20.1  59d   2
2023 01 30 05  10 04 11.022   +25 00 54.58  .02472 1.0084 161.0 20.1  59d   2
2023 01 30 06  10 03 59.964   +25 12 57.69  .02475 1.0085 161.0 20.1  59d   2
2023 01 30 07  10 03 48.894   +25 24 58.77  .02478 1.0085 161.0 20.1  59d   2
2023 01 30 08  10 03 37.813   +25 36 57.81  .02482 1.0085 161.0 20.1  59d   2
2023 01 30 09  10 03 26.719   +25 48 54.81  .02485 1.0086 161.0 20.1  59d   2
2023 01 30 10  10 03 15.613   +26 00 49.74  .02488 1.0086 161.0 20.1  59d   2
2023 01 30 11  10 03 04.495   +26 12 42.60  .02492 1.0086 161.0 20.1  59d   2
2023 01 30 12  10 02 53.365   +26 24 33.38  .02495 1.0087 161.0 20.1  59d   2
2023 01 30 13  10 02 42.223   +26 36 22.06  .02499 1.0087 161.0 20.1  59d   2
2023 01 30 14  10 02 31.070   +26 48 08.63  .02502 1.0088 161.0 20.1  59d   2
2023 01 30 15  10 02 19.904   +26 59 53.08  .02506 1.0088 161.0 20.1  59d   2
2023 01 30 16  10 02 08.727   +27 11 35.40  .02510 1.0088 160.9 20.1  59d   2
2023 01 30 17  10 01 57.538   +27 23 15.59  .02513 1.0089 160.9 20.1  59d   2
2023 01 30 18  10 01 46.338   +27 34 53.62  .02517 1.0089 160.9 20.1  59d   2
2023 01 30 19  10 01 35.125   +27 46 29.49  .02521 1.0089 160.9 20.1  59d   2
2023 01 30 20  10 01 23.902   +27 58 03.20  .02525 1.0090 160.8 20.1  59d   2
2023 01 30 21  10 01 12.666   +28 09 34.72  .02528 1.0090 160.8 20.1  59d   2
2023 01 30 22  10 01 01.419   +28 21 04.06  .02532 1.0090 160.8 20.1  59d   2
2023 01 30 23  10 00 50.161   +28 32 31.20  .02536 1.0091 160.7 20.1  59d   2
2023 01 31 00  10 00 38.891   +28 43 56.14  .02540 1.0091 160.7 20.1  59d   2
2023 01 31 01  10 00 27.610   +28 55 18.87  .02544 1.0092 160.7 20.1  59d   2
2023 01 31 02  10 00 16.318   +29 06 39.37  .02548 1.0092 160.6 20.1  58d   2
2023 01 31 03  10 00 05.014   +29 17 57.65  .02552 1.0092 160.6 20.2  58d   2
2023 01 31 04  09 59 53.699   +29 29 13.69  .02556 1.0093 160.5 20.2  58d   2
2023 01 31 05  09 59 42.373   +29 40 27.48  .02560 1.0093 160.5 20.2  58d   2
2023 01 31 06  09 59 31.035   +29 51 39.03  .02564 1.0093 160.4 20.2  58d   2
2023 01 31 07  09 59 19.687   +30 02 48.32  .02568 1.0094 160.4 20.2  58d   2
2023 01 31 08  09 59 08.328   +30 13 55.34  .02572 1.0094 160.3 20.2  58d   2
2023 01 31 09  09 58 56.957   +30 25 00.10  .02576 1.0094 160.3 20.2  58d   2
2023 01 31 10  09 58 45.576   +30 36 02.58  .02580 1.0095 160.2 20.2  58d   2
2023 01 31 11  09 58 34.184   +30 47 02.78  .02585 1.0095 160.1 20.2  58d   2
2023 01 31 12  09 58 22.781   +30 58 00.70  .02589 1.0096 160.1 20.2  58d   2
2023 01 31 13  09 58 11.367   +31 08 56.32  .02593 1.0096 160.0 20.2  58d   2
2023 01 31 14  09 57 59.942   +31 19 49.65  .02597 1.0096 160.0 20.2  58d   2